Weather in Zimovye

Russia / Novosibirsk Oblast     54°13′50″N   83°32′29″E
temp.,
°C
wind,
m/s
gust,
m/s
humid.,
%
clouds,
%
prec.,
mm/h
press.,
hPa
HPBL,
m
28 january, thu
thu2801:00−5wsw71294100 1.3 1026537
04:00−7wsw51095100 0.8 1028396
07:00−8wsw4995100 1.1 1030298
10:00−8sw4995100 0.2 1031288
13:00−6sw51095100 0.4 1031377
16:00−5sw61295100 0.6 1029561
19:00−6sw61394100 0.8 1029568
22:00−7sw71392100 0.2 1028499
29 january, fri
fri2901:00−8sw81593100 0.3 1027442
04:00−8sw91793100 0.0 1025473
07:00−6sw91890100 0.1 1023610
10:00−6wsw91791100 0.1 1023753
13:00−5w81395100 1.3 1025852
16:00−4w61194100 0.7 1025761
19:00−5wsw51095100 1.0 1027439
22:00−6wsw41095100 0.3 1028343
30 january, sat
sat3001:00−7wsw4995100 0.5 1028343
04:00−8wsw4896100 0.2 1029269
07:00−8w3796100 0.3 1030217
10:00−9w3596100 0.1 1032126
13:00−8wnw2495100 0.2 1034274
16:00−9n2396100 0.1 1035197
19:00−13nne3396100 0.1 103661
22:00−15ene3495100 0.0 103769
31 january, sun
sun3101:00−17e349689 0.0 103745
04:00−17ese349727 0.0 103645
07:00−17ese349839 0.0 103558
10:00−17ese359789 0.0 103489
13:00−12se469494 0.0 1032195
16:00−10ese359396 0.0 1029191
19:00−11ese359098 0.0 102883
22:00−11ese3489100 0.0 102558
1 february, mon
mon101:00−11se3385100 0.0 102338
04:00−11se1183100 0.0 102221
07:00−11sw1284100 0.0 102121
10:00−13w228978 0.0 102220
13:00−10w249240 0.0 1023163
16:00−10w249555 0.0 1023201
19:00−15wnw229756 0.0 102620
22:00−17nw229761 0.0 102820